Jackson, MI

10:32 PM EDT on March 22, 2017 (GMT -0400)
Jackson County-Reynolds

Weather History for KJXN - May, 2013

Change the Weather History Date:

Saturday, May 11, 2013

  Actual Average Record
Temperature  
Mean Temperature 48 °F 56 °F  
Max Temperature 60 °F 68 °F 87 °F (1979)
Min Temperature 36 °F 45 °F 29 °F (1949)
Degree Days  
Heating Degree Days 17 10  
Month to date heating degree days 46 120  
Since 1 July heating degree days 6381 6466  
Cooling Degree Days 0 1  
Month to date cooling degree days 7 4  
Year to date cooling degree days 7 10  
Moisture  
Dew Point 40 °F    
Average Humidity 75    
Maximum Humidity 96    
Minimum Humidity 53    
Precipitation  
Precipitation 0.01 in 0.11 in 1.21 in (1974)
Month to date precipitation 0.23 1.11  
Year to date precipitation 11.38 8.40  
Sea Level Pressure  
Sea Level Pressure 29.86 in    
Wind  
Wind Speed 7 mph (WNW)    
Max Wind Speed 22 mph    
Max Gust Speed 32 mph    
Visibility 10 miles    
Events      
T = Trace of Precipitation, MM = Missing Value Source: NWS Daily Summary

Daily Weather History Graph

Daily Weather History Graph

Search for Another Location

Airport or City:

Trip Planner

Search our weather history database for the weather conditions in past years. The results will help you decide how hot, cold, wet, or windy it might be!

Date:

Astronomy

May. 11, 2013 Rise Set
Actual Time 6:20 AM EDT 8:48 PM EDT
Civil Twilight 5:48 AM EDT 9:20 PM EDT
Nautical Twilight 5:09 AM EDT 9:59 PM EDT
Astronomical Twilight 4:25 AM EDT 10:44 PM EDT
Moon 7:27 AM EDT (5/11) 10:28 PM EDT (5/11)
Length of Visible Light 15h 31m
Length of Day
14h 27m
Waxing Crescent, 3% of the Moon is Illuminated
May 11
Waxing Crescent
May 18
First Quarter
May 25
Full
May 31
Last Quarter
Jun 8
New

Hourly Weather History & Observations

Time (EDT) Temp. Windchill Dew Point Humidity Pressure Visibility Wind Dir Wind Speed Gust Speed Precip Events Conditions
12:56 AM 42.1 °F 38.4 °F 39.0 °F 89% 29.90 in 10.0 mi North 5.8 mph - N/A   Overcast
1:06 AM 42.8 °F 39.3 °F 39.2 °F 87% 29.89 in 10.0 mi NNW 5.8 mph - N/A   Overcast
1:56 AM 43.0 °F 40.3 °F 39.0 °F 86% 29.89 in 10.0 mi NNW 4.6 mph - N/A   Overcast
2:19 AM 42.8 °F 39.3 °F 39.2 °F 87% 29.88 in 10.0 mi North 5.8 mph - N/A   Overcast
2:56 AM 43.0 °F 40.3 °F 39.9 °F 89% 29.89 in 9.0 mi North 4.6 mph - N/A   Overcast
3:01 AM 42.8 °F - 39.2 °F 87% 29.88 in 10.0 mi Calm Calm - N/A   Overcast
3:18 AM 42.8 °F 41.1 °F 39.2 °F 87% 29.88 in 10.0 mi Variable 3.5 mph - N/A   Overcast
3:52 AM 42.8 °F 39.3 °F 39.2 °F 87% 29.88 in 10.0 mi NNW 5.8 mph - N/A   Overcast
3:56 AM 43.0 °F 41.3 °F 39.0 °F 86% 29.89 in 10.0 mi NW 3.5 mph - N/A   Overcast
4:56 AM 42.1 °F 37.7 °F 39.9 °F 92% 29.91 in 8.0 mi WNW 6.9 mph - N/A   Overcast
5:56 AM 42.1 °F 38.4 °F 39.9 °F 92% 29.90 in 10.0 mi West 5.8 mph - N/A   Overcast
6:56 AM 43.0 °F 40.3 °F 41.0 °F 93% 29.91 in 10.0 mi NW 4.6 mph - N/A   Overcast
7:56 AM 43.0 °F 39.5 °F 41.0 °F 93% 29.90 in 10.0 mi WNW 5.8 mph - N/A   Overcast
8:56 AM 44.1 °F 40.1 °F 42.1 °F 93% 29.89 in 10.0 mi WNW 6.9 mph - N/A   Overcast
9:56 AM 45.0 °F 43.5 °F 42.1 °F 90% 29.89 in 10.0 mi West 3.5 mph - N/A   Overcast
10:56 AM 48.0 °F - 43.0 °F 83% 29.87 in 10.0 mi West 5.8 mph - N/A   Overcast
11:29 AM 50.0 °F - 44.6 °F 82% 29.85 in 10.0 mi West 6.9 mph - N/A   Overcast
11:56 AM 53.1 °F - 43.0 °F 69% 29.85 in 10.0 mi SW 6.9 mph - N/A   Mostly Cloudy
12:20 PM 53.6 °F - 42.8 °F 67% 29.83 in 10.0 mi Variable 6.9 mph - N/A   Scattered Clouds
12:32 PM 53.6 °F - 42.8 °F 67% 29.83 in 10.0 mi Variable 5.8 mph - N/A   Mostly Cloudy
12:40 PM 55.4 °F - 42.8 °F 63% 29.82 in 10.0 mi SW 8.1 mph - N/A   Scattered Clouds
12:54 PM 55.4 °F - 42.8 °F 63% 29.82 in 10.0 mi SSW 6.9 mph - N/A   Mostly Cloudy
12:56 PM 55.9 °F - 43.0 °F 62% 29.83 in 10.0 mi SSW 9.2 mph - N/A   Mostly Cloudy
1:38 PM 57.2 °F - 44.6 °F 63% 29.80 in 10.0 mi SW 10.4 mph 17.3 mph N/A   Scattered Clouds
1:56 PM 57.0 °F - 44.1 °F 62% 29.80 in 10.0 mi WSW 10.4 mph - N/A   Partly Cloudy
2:56 PM 55.9 °F - 44.1 °F 64% 29.80 in 10.0 mi WSW 11.5 mph - N/A   Overcast
3:56 PM 59.0 °F - 42.1 °F 53% 29.77 in 10.0 mi SSW 10.4 mph 19.6 mph N/A   Mostly Cloudy
4:49 PM 51.8 °F - 46.4 °F 82% 29.78 in 10.0 mi SW 9.2 mph - 0.01 in   Overcast
4:56 PM 52.0 °F - 46.0 °F 80% 29.79 in 10.0 mi WSW 11.5 mph 17.3 mph 0.01 in   Overcast
5:43 PM 48.2 °F - 41.0 °F 76% 29.79 in 10.0 mi WNW 19.6 mph 26.5 mph N/A   Overcast
5:56 PM 48.0 °F - 41.0 °F 77% 29.82 in 10.0 mi West 11.5 mph 19.6 mph N/A   Overcast
6:56 PM 46.0 °F 39.0 °F 37.0 °F 71% 29.88 in 10.0 mi WNW 17.3 mph 29.9 mph N/A   Overcast
7:15 PM 44.6 °F 37.4 °F 33.8 °F 66% 29.87 in 10.0 mi NW 16.1 mph 28.8 mph N/A   Scattered Clouds
7:56 PM 43.0 °F 37.7 °F 32.0 °F 65% 29.91 in 10.0 mi NNW 9.2 mph 21.9 mph N/A   Scattered Clouds
8:56 PM 39.9 °F 36.7 °F 32.0 °F 73% 29.92 in 10.0 mi NW 4.6 mph - N/A   Clear
9:56 PM 39.0 °F 35.7 °F 30.9 °F 73% 29.93 in 10.0 mi West 4.6 mph - N/A   Clear
11:56 PM 37.0 °F 32.4 °F 30.9 °F 79% 29.94 in 10.0 mi West 5.8 mph - N/A   Clear